Weather History for Abilene Dyess, TX

Change the Weather History Date:

Tuesday, July 16, 2013

  Actual Average Record
Temperature  
Mean Temperature 72 °F -  
Max Temperature 77 °F 95 °F 105 °F (2001)
Min Temperature 66 °F 73 °F 66 °F (2013)
Cooling Degree Days 6    
Growing Degree Days 22 (Base 50)    
Moisture  
Dew Point 69 °F    
Average Humidity 94    
Maximum Humidity 100    
Minimum Humidity 76    
Precipitation  
Precipitation 2.69 in - - ()
Sea Level Pressure  
Sea Level Pressure 30.11 in    
Wind  
Wind Speed 5 mph (East)    
Max Wind Speed 17 mph    
Max Gust Speed -    
Visibility 8 miles    
Events Rain , Thunderstorm    
Averages and records for this station are not official NWS values.
T = Trace of Precipitation, MM = Missing Value Source: NWS Daily Summary

Daily Weather History Graph

Daily Weather History Graph

Search for Another Location

Airport:

Trip Planner

Search our weather history database for the weather conditions in past years. The results will help you decide how hot, cold, wet, or windy it might be!

Date:

Astronomy

Jul. 16, 2013 Rise Set
Actual Time 6:43 AM CDT 8:46 PM CDT
Civil Twilight 6:16 AM CDT 9:14 PM CDT
Nautical Twilight 5:42 AM CDT 9:48 PM CDT
Astronomical Twilight 5:06 AM CDT 10:24 PM CDT
Moon 2:38 PM CDT (7/16) 1:04 AM CDT (7/16)
Length of Visible Light 14h 58m
Length of Day
14h 03m
First Quarter, 56% of the Moon is Illuminated
Jul 16
First Quarter
Jul 22
Full
Jul 29
Last Quarter
Aug 6
New
Aug 14
First Quarter

Hourly Weather History & Observations

Time (CDT) Temp. Dew Point Humidity Pressure Visibility Wind Dir Wind Speed Gust Speed Precip Events Conditions
12:43 AM 66.2 °F 66.2 °F 100% 30.09 in 10.0 mi WSW 1.2 mph - N/A   Overcast
12:58 AM 67.1 °F 66.2 °F 97% 30.00 in 10.0 mi WNW 1.2 mph - N/A   Overcast
1:28 AM 68.0 °F 66.2 °F 94% 30.08 in 10.0 mi Calm Calm - N/A   Scattered Clouds
1:49 AM 68.0 °F 66.2 °F 94% 30.07 in 8.0 mi Calm Calm - N/A   Light Drizzle
1:58 AM 67.1 °F 66.0 °F 96% 30.07 in 9.0 mi Calm Calm - 0.00 in Rain Light Rain
2:03 AM 68.0 °F 66.2 °F 94% 30.07 in 10.0 mi North 1.2 mph - N/A   Partly Cloudy
2:28 AM 68.0 °F 66.2 °F 94% 30.07 in 10.0 mi North 2.3 mph - N/A   Mostly Cloudy
2:38 AM 68.0 °F 66.2 °F 94% 30.07 in 10.0 mi Variable 2.3 mph - N/A   Overcast
2:53 AM 68.0 °F 66.2 °F 94% 30.07 in 10.0 mi East 3.5 mph - N/A   Mostly Cloudy
2:58 AM 67.3 °F 66.4 °F 97% 30.07 in 10.0 mi East 2.3 mph - 0.00 in   Mostly Cloudy
3:28 AM 68.0 °F 66.2 °F 94% 30.07 in 10.0 mi East 1.2 mph - N/A   Mostly Cloudy
3:33 AM 68.0 °F 66.2 °F 94% 30.07 in 10.0 mi ESE 2.3 mph - N/A   Mostly Cloudy
3:56 AM 68.0 °F 66.2 °F 94% 30.07 in 7.0 mi ESE 3.5 mph - N/A Rain Light Rain
3:58 AM 67.5 °F 66.9 °F 98% 29.98 in 7.0 mi ESE 3.5 mph - N/A Rain Light Rain
4:08 AM 68.0 °F 66.2 °F 94% 30.07 in 2.5 mi East 3.5 mph - N/A Rain Rain
4:13 AM 68.0 °F 68.0 °F 100% 30.07 in 4.0 mi ENE 2.3 mph - N/A Rain Heavy Rain
4:18 AM 68.0 °F 68.0 °F 100% 30.07 in 6.0 mi East 3.5 mph - N/A Rain Light Rain
4:23 AM 68.0 °F 68.0 °F 100% 30.02 in 7.0 mi East 3.5 mph - N/A Rain Light Rain
4:52 AM 68.0 °F 68.0 °F 100% 30.06 in 4.0 mi East 3.5 mph - N/A Rain Heavy Rain
4:58 AM 67.8 °F 67.5 °F 99% 29.97 in 3.0 mi East 4.6 mph - 0.28 in Rain Heavy Rain
5:12 AM 68.0 °F 68.0 °F 100% 30.06 in 3.0 mi East 5.8 mph - N/A Rain Light Rain
5:22 AM 68.0 °F 68.0 °F 100% 30.07 in 4.0 mi SE 5.8 mph - N/A Rain Light Rain
5:27 AM 68.0 °F 68.0 °F 100% 30.07 in 2.5 mi SSE 5.8 mph - N/A Rain Rain
5:58 AM 67.8 °F 67.8 °F 100% 29.99 in 1.5 mi SE 9.2 mph - 0.87 in Rain Heavy Rain
6:07 AM 68.0 °F 68.0 °F 100% 30.08 in 2.5 mi SE 9.2 mph - N/A Rain Rain
6:27 AM 68.0 °F 68.0 °F 100% 30.09 in 9.0 mi SSE 5.8 mph - N/A Rain Light Rain
6:47 AM 68.0 °F 68.0 °F 100% 30.09 in 4.0 mi South 2.3 mph - N/A Rain Rain
6:58 AM 67.8 °F 67.5 °F 99% 30.05 in 5.0 mi SW 3.5 mph - 0.30 in Rain Light Rain
7:03 AM 68.0 °F 68.0 °F 100% 30.09 in 2.5 mi Calm Calm - N/A Rain Rain
7:08 AM 68.0 °F 68.0 °F 100% 30.09 in 2.0 mi NNE 4.6 mph - N/A Rain Light Rain
7:18 AM 68.0 °F 68.0 °F 100% 30.10 in 2.0 mi North 4.6 mph - N/A Rain Heavy Rain
7:28 AM 68.0 °F 68.0 °F 100% 30.11 in 4.0 mi NE 4.6 mph - N/A Rain Light Rain
7:33 AM 68.0 °F 68.0 °F 100% 30.11 in 5.0 mi NE 5.8 mph - N/A Rain Light Rain
7:43 AM 68.0 °F 68.0 °F 100% 30.11 in 5.0 mi NE 3.5 mph - N/A Rain Light Rain
7:58 AM 68.7 °F 67.8 °F 97% 30.02 in 6.0 mi NNE 5.8 mph - 0.20 in Rain Light Rain
8:33 AM 68.0 °F 68.0 °F 100% 30.13 in 6.0 mi NNE 6.9 mph - N/A Rain Light Rain
8:58 AM 68.4 °F 68.4 °F 100% 30.05 in 2.5 mi NE 8.1 mph - 0.15 in Rain Rain
9:28 AM 68.0 °F 68.0 °F 100% 30.14 in 4.0 mi ENE 3.5 mph - N/A Rain Light Rain
9:37 AM 69.8 °F 69.8 °F 100% 30.14 in 7.0 mi East 4.6 mph - N/A Rain Light Rain
9:58 AM 69.6 °F 69.6 °F 100% 30.06 in 9.0 mi East 5.8 mph - 0.16 in Rain Light Rain
10:13 AM 69.8 °F 69.8 °F 100% 30.15 in 10.0 mi East 5.8 mph - N/A Rain Light Rain
10:24 AM 71.6 °F 69.8 °F 94% 30.15 in 10.0 mi East 5.8 mph - N/A   Overcast
10:34 AM 71.6 °F 71.6 °F 100% 30.14 in 10.0 mi ENE 5.8 mph - N/A   Overcast
10:44 AM 71.6 °F 69.8 °F 94% 30.14 in 10.0 mi East 6.9 mph - N/A   Overcast
10:58 AM 71.6 °F 70.7 °F 97% 30.04 in 10.0 mi ESE 5.8 mph - 0.01 in   Overcast
11:08 AM 71.6 °F 71.6 °F 100% 30.15 in 10.0 mi ESE 9.2 mph - N/A   Overcast
11:13 AM 73.4 °F 71.6 °F 94% 30.15 in 10.0 mi ESE 12.7 mph - N/A   Overcast
11:18 AM 73.4 °F 69.8 °F 88% 30.15 in 10.0 mi SE 12.7 mph - N/A Rain Light Rain
11:31 AM 73.4 °F 71.6 °F 94% 30.15 in 10.0 mi ESE 8.1 mph - N/A   Overcast
11:36 AM 73.4 °F 71.6 °F 94% 30.15 in 10.0 mi SE 11.5 mph - N/A   Overcast
11:46 AM 73.4 °F 69.8 °F 88% 30.15 in 10.0 mi SE 12.7 mph - N/A   Overcast
11:51 AM 73.4 °F 69.8 °F 88% 30.15 in 10.0 mi SE 10.4 mph - N/A Rain Light Rain
11:56 AM 73.4 °F 69.8 °F 88% 30.15 in 10.0 mi ESE 12.7 mph - N/A Rain Light Rain
11:58 AM 73.4 °F 69.8 °F 88% 30.06 in 10.0 mi ESE 12.7 mph - 0.00 in Rain Light Rain
12:08 PM 73.4 °F 71.6 °F 94% 30.16 in 10.0 mi SE 9.2 mph - N/A Rain Light Rain
12:13 PM 73.4 °F 71.6 °F 94% 30.16 in 10.0 mi SE 6.9 mph - N/A Rain Light Rain
12:18 PM 73.4 °F 71.6 °F 94% 30.16 in 10.0 mi SE 10.4 mph - N/A Rain Light Rain
12:23 PM 73.4 °F 71.6 °F 94% 30.16 in 10.0 mi SE 9.2 mph - N/A Rain Light Rain
12:28 PM 73.4 °F 71.6 °F 94% 30.16 in 10.0 mi SE 8.1 mph - N/A Rain Light Rain
12:33 PM 73.4 °F 71.6 °F 94% 30.16 in 10.0 mi SE 8.1 mph - N/A Rain Light Rain
12:38 PM 73.4 °F 71.6 °F 94% 30.16 in 10.0 mi ESE 10.4 mph - N/A Rain Light Rain
12:39 PM 73.4 °F 71.6 °F 94% 30.16 in 10.0 mi SE 9.2 mph - N/A   Mostly Cloudy
12:44 PM 73.4 °F 71.6 °F 94% 30.16 in 10.0 mi ESE 9.2 mph - N/A   Mostly Cloudy
12:49 PM 73.4 °F 71.6 °F 94% 30.16 in 10.0 mi ESE 12.7 mph - N/A   Overcast
12:58 PM 74.3 °F 70.7 °F 88% 30.06 in 10.0 mi SE 9.2 mph - 0.01 in   Overcast
1:08 PM 75.2 °F 69.8 °F 83% 30.15 in 10.0 mi SE 10.4 mph - N/A   Overcast
1:13 PM 75.2 °F 69.8 °F 83% 30.15 in 10.0 mi SE 11.5 mph - N/A   Overcast
1:23 PM 75.2 °F 69.8 °F 83% 30.15 in 10.0 mi SE 10.4 mph - N/A   Overcast
1:33 PM 75.2 °F 69.8 °F 83% 30.15 in 10.0 mi SSE 11.5 mph - N/A   Overcast
1:58 PM 75.9 °F 70.2 °F 82% 30.04 in 10.0 mi SE 9.2 mph - N/A   Overcast
2:08 PM 75.2 °F 69.8 °F 83% 30.14 in 10.0 mi SE 8.1 mph - N/A   Overcast
2:58 PM 77.0 °F 69.8 °F 78% 30.03 in 10.0 mi ESE 6.9 mph - N/A   Overcast
3:01 PM 77.0 °F 69.8 °F 78% 30.14 in 10.0 mi ESE 6.9 mph - N/A Rain Light Rain
3:20 PM 77.0 °F 69.8 °F 78% 30.13 in 10.0 mi SE 3.5 mph - N/A   Overcast
3:58 PM 77.7 °F 69.4 °F 76% 30.02 in 10.0 mi East 9.2 mph - 0.01 in   Mostly Cloudy
4:03 PM 75.2 °F 69.8 °F 83% 30.14 in 0.8 mi East 17.3 mph - N/A Rain Heavy Rain
4:13 PM 71.6 °F 69.8 °F 94% 30.14 in 2.0 mi East 6.9 mph - N/A Rain , Thunderstorm Thunderstorms and Rain
4:20 PM 71.6 °F 69.8 °F 94% 30.14 in 4.0 mi East 5.8 mph - N/A Rain , Thunderstorm Light Thunderstorms and Rain
4:29 PM 71.6 °F 69.8 °F 94% 30.14 in 2.0 mi ENE 4.6 mph - N/A Rain Light Rain
4:34 PM 71.6 °F 69.8 °F 94% 30.14 in 6.0 mi East 4.6 mph - N/A Rain , Thunderstorm Light Rain
4:48 PM 71.6 °F 69.8 °F 94% 30.14 in 10.0 mi East 4.6 mph - N/A   Overcast
4:50 PM 71.6 °F 69.8 °F 94% 30.14 in 10.0 mi ENE 3.5 mph - N/A Rain Light Rain
4:51 PM 71.6 °F 69.8 °F 94% 30.14 in 10.0 mi ENE 2.3 mph - N/A   Overcast
4:58 PM 72.1 °F 70.2 °F 93% 30.04 in 10.0 mi NE 2.3 mph - 0.46 in   Overcast
5:57 PM 75.2 °F 69.8 °F 83% 30.09 in 10.0 mi East 6.9 mph - N/A Thunderstorm Mostly Cloudy
5:58 PM 74.8 °F 70.7 °F 87% 30.04 in 10.0 mi East 6.9 mph - N/A Thunderstorm Mostly Cloudy
6:04 PM 75.2 °F 71.6 °F 89% 30.09 in 10.0 mi East 6.9 mph - N/A Rain , Thunderstorm Light Thunderstorms and Rain
6:23 PM 75.2 °F 69.8 °F 83% 30.14 in 5.0 mi Calm Calm - N/A Rain Light Rain
6:58 PM 73.8 °F 71.2 °F 92% 30.05 in 10.0 mi West 3.5 mph - 0.03 in Rain Light Rain
7:36 PM 73.4 °F 71.6 °F 94% 30.16 in 10.0 mi NW 2.3 mph - N/A   Scattered Clouds
7:44 PM 73.4 °F 71.6 °F 94% 30.16 in 10.0 mi North 3.5 mph - N/A Rain Light Rain
7:58 PM 73.6 °F 71.6 °F 93% 30.06 in 10.0 mi NNE 3.5 mph - 0.01 in Rain Light Rain
8:58 PM 73.0 °F 72.0 °F 96% 30.07 in 9.0 mi ENE 6.9 mph - 0.09 in Rain Light Rain
9:31 PM 73.4 °F 71.6 °F 94% 30.17 in 10.0 mi ENE 9.2 mph - N/A   Mostly Cloudy
9:37 PM 73.4 °F 71.6 °F 94% 30.17 in 10.0 mi ENE 8.1 mph - N/A Rain Light Rain
9:58 PM 72.5 °F 71.6 °F 97% 30.08 in 10.0 mi ENE 6.9 mph - 0.03 in Rain Light Rain
10:03 PM 71.6 °F 71.6 °F 100% 30.19 in 10.0 mi East 6.9 mph - N/A   Overcast
10:26 PM 71.6 °F 71.6 °F 100% 30.20 in 10.0 mi East 8.1 mph - N/A Rain Light Rain
10:58 PM 72.0 °F 71.1 °F 97% 30.11 in 8.0 mi ESE 4.6 mph - 0.05 in Rain Light Rain
11:46 PM 71.6 °F 71.6 °F 100% 30.20 in 10.0 mi ENE 5.8 mph - N/A   Overcast
11:58 PM 72.0 °F 71.2 °F 98% 30.10 in 10.0 mi East 4.6 mph - 0.03 in   Overcast